Year,Month,Day,Hour,Minute,Value (Times are PST for temperature in C)
2016,04,03,00,00,8.60
2016,04,03,00,01,8.60
2016,04,03,00,02,8.60
2016,04,03,00,03,8.60
2016,04,03,00,04,8.60
2016,04,03,00,05,8.60
2016,04,03,00,06,8.60
2016,04,03,00,07,8.50
2016,04,03,00,08,8.50
2016,04,03,00,09,8.50
2016,04,03,00,10,8.50
2016,04,03,00,11,8.40
2016,04,03,00,12,8.40
2016,04,03,00,13,8.40
2016,04,03,00,14,8.40
2016,04,03,00,15,8.40
2016,04,03,00,16,8.40
2016,04,03,00,17,8.40
2016,04,03,00,18,8.40
2016,04,03,00,19,8.40
2016,04,03,00,20,8.40
2016,04,03,00,21,8.40
2016,04,03,00,22,8.30
2016,04,03,00,23,8.30
2016,04,03,00,24,8.30
2016,04,03,00,25,8.30
2016,04,03,00,26,8.30
2016,04,03,00,27,8.30
2016,04,03,00,28,8.30
2016,04,03,00,29,8.30
2016,04,03,00,30,8.30
2016,04,03,00,31,8.30
2016,04,03,00,32,8.30
2016,04,03,00,33,8.30
2016,04,03,00,34,8.30
2016,04,03,00,35,8.30
2016,04,03,00,36,8.30
2016,04,03,00,37,8.30
2016,04,03,00,38,8.30
2016,04,03,00,39,8.30
2016,04,03,00,40,8.30
2016,04,03,00,41,8.30
2016,04,03,00,42,8.30
2016,04,03,00,43,8.30
2016,04,03,00,44,8.20
2016,04,03,00,45,8.20
2016,04,03,00,46,8.20
2016,04,03,00,47,8.20
2016,04,03,00,48,8.20
2016,04,03,00,49,8.20
2016,04,03,00,50,8.30
2016,04,03,00,51,8.30
2016,04,03,00,52,8.30
2016,04,03,00,53,8.30
2016,04,03,00,54,8.30
2016,04,03,00,55,8.30
2016,04,03,00,56,8.30
2016,04,03,00,57,8.30
2016,04,03,00,58,8.30
2016,04,03,00,59,8.30
2016,04,03,01,00,8.30
2016,04,03,01,01,8.20
2016,04,03,01,02,8.20
2016,04,03,01,03,8.20
2016,04,03,01,04,8.20
2016,04,03,01,05,8.20
2016,04,03,01,06,8.20
2016,04,03,01,07,8.20
2016,04,03,01,08,8.20
2016,04,03,01,09,8.20
2016,04,03,01,10,8.20
2016,04,03,01,11,8.20
2016,04,03,01,12,8.20
2016,04,03,01,13,8.20
2016,04,03,01,14,8.20
2016,04,03,01,15,8.20
2016,04,03,01,16,8.20
2016,04,03,01,17,8.20
2016,04,03,01,18,8.10
2016,04,03,01,19,8.10
2016,04,03,01,20,8.10
2016,04,03,01,21,8.10
2016,04,03,01,22,8.10
2016,04,03,01,23,8.10
2016,04,03,01,24,8.20
2016,04,03,01,25,8.20
2016,04,03,01,26,8.20
2016,04,03,01,27,8.20
2016,04,03,01,28,8.20
2016,04,03,01,29,8.20
2016,04,03,01,30,8.20
2016,04,03,01,31,8.20
2016,04,03,01,32,8.20
2016,04,03,01,33,8.20
2016,04,03,01,34,8.20
2016,04,03,01,35,8.20
2016,04,03,01,36,8.10
2016,04,03,01,37,8.10
2016,04,03,01,38,8.20
2016,04,03,01,39,8.20
2016,04,03,01,40,8.20
2016,04,03,01,41,8.20
2016,04,03,01,42,8.10
2016,04,03,01,43,8.10
2016,04,03,01,44,8.10
2016,04,03,01,45,8.10
2016,04,03,01,46,8.00
2016,04,03,01,47,8.00
2016,04,03,01,48,8.00
2016,04,03,01,49,7.90
2016,04,03,01,50,7.90
2016,04,03,01,51,7.90
2016,04,03,01,52,7.80
2016,04,03,01,53,7.80
2016,04,03,01,54,7.80
2016,04,03,01,55,7.80
2016,04,03,01,56,7.80
2016,04,03,01,57,7.80
2016,04,03,01,58,7.80
2016,04,03,01,59,7.80
2016,04,03,02,00,7.80
2016,04,03,02,01,7.80
2016,04,03,02,02,7.80
2016,04,03,02,03,7.80
2016,04,03,02,04,7.80
2016,04,03,02,05,7.90
2016,04,03,02,06,7.90
2016,04,03,02,07,7.90
2016,04,03,02,08,8.00
2016,04,03,02,09,8.00
2016,04,03,02,10,8.00
2016,04,03,02,11,8.00
2016,04,03,02,12,7.90
2016,04,03,02,13,7.90
2016,04,03,02,14,7.90
2016,04,03,02,15,7.80
2016,04,03,02,16,7.80
2016,04,03,02,17,7.80
2016,04,03,02,18,7.80
2016,04,03,02,19,7.80
2016,04,03,02,20,7.80
2016,04,03,02,21,7.80
2016,04,03,02,22,7.80
2016,04,03,02,23,7.80
2016,04,03,02,24,7.80
2016,04,03,02,25,7.80
2016,04,03,02,26,7.80
2016,04,03,02,27,7.70
2016,04,03,02,28,7.80
2016,04,03,02,29,7.80
2016,04,03,02,30,7.80
2016,04,03,02,31,7.80
2016,04,03,02,32,7.80
2016,04,03,02,33,7.80
2016,04,03,02,34,7.80
2016,04,03,02,35,7.80
2016,04,03,02,36,7.80
2016,04,03,02,37,7.80
2016,04,03,02,38,7.70
2016,04,03,02,39,7.70
2016,04,03,02,40,7.70
2016,04,03,02,41,7.70
2016,04,03,02,42,7.70
2016,04,03,02,43,7.70
2016,04,03,02,44,7.70
2016,04,03,02,45,7.60
2016,04,03,02,46,7.60
2016,04,03,02,47,7.60
2016,04,03,02,48,7.60
2016,04,03,02,49,7.50
2016,04,03,02,50,7.50
2016,04,03,02,51,7.50
2016,04,03,02,52,7.50
2016,04,03,02,53,7.40
2016,04,03,02,54,7.40
2016,04,03,02,55,7.40
2016,04,03,02,56,7.40
2016,04,03,02,57,7.40
2016,04,03,02,58,7.40
2016,04,03,02,59,7.40
2016,04,03,03,00,7.40
2016,04,03,03,01,7.40
2016,04,03,03,02,7.40
2016,04,03,03,03,7.50
2016,04,03,03,04,7.50
2016,04,03,03,05,7.50
2016,04,03,03,06,7.50
2016,04,03,03,07,7.50
2016,04,03,03,08,7.50
2016,04,03,03,09,7.50
2016,04,03,03,10,7.40
2016,04,03,03,11,7.40
2016,04,03,03,12,7.40
2016,04,03,03,13,7.40
2016,04,03,03,14,7.40
2016,04,03,03,15,7.40
2016,04,03,03,16,7.40
2016,04,03,03,17,7.50
2016,04,03,03,18,7.60
2016,04,03,03,19,7.60
2016,04,03,03,20,7.60
2016,04,03,03,21,7.60
2016,04,03,03,22,7.60
2016,04,03,03,23,7.60
2016,04,03,03,24,7.60
2016,04,03,03,25,7.60
2016,04,03,03,26,7.60
2016,04,03,03,27,7.60
2016,04,03,03,28,7.60
2016,04,03,03,29,7.60
2016,04,03,03,30,7.60
2016,04,03,03,31,7.60
2016,04,03,03,32,7.60
2016,04,03,03,33,7.60
2016,04,03,03,34,7.60
2016,04,03,03,35,7.60
2016,04,03,03,36,7.70
2016,04,03,03,37,7.70
2016,04,03,03,38,7.80
2016,04,03,03,39,7.80
2016,04,03,03,40,7.80
2016,04,03,03,41,7.80
2016,04,03,03,42,7.80
2016,04,03,03,43,7.80
2016,04,03,03,44,7.70
2016,04,03,03,45,7.70
2016,04,03,03,46,7.70
2016,04,03,03,47,7.60
2016,04,03,03,48,7.60
2016,04,03,03,49,7.70
2016,04,03,03,50,7.70
2016,04,03,03,51,7.60
2016,04,03,03,52,7.60
2016,04,03,03,53,7.60
2016,04,03,03,54,7.60
2016,04,03,03,55,7.60
2016,04,03,03,56,7.60
2016,04,03,03,57,7.60
2016,04,03,03,58,7.70
2016,04,03,03,59,7.70
2016,04,03,04,00,7.70
2016,04,03,04,01,7.70
2016,04,03,04,02,7.60
2016,04,03,04,03,7.60
2016,04,03,04,04,7.60
2016,04,03,04,05,7.60
2016,04,03,04,06,7.60
2016,04,03,04,07,7.60
2016,04,03,04,08,7.60
2016,04,03,04,09,7.60
2016,04,03,04,10,7.60
2016,04,03,04,11,7.60
2016,04,03,04,12,7.60
2016,04,03,04,13,7.60
2016,04,03,04,14,7.60
2016,04,03,04,15,7.60
2016,04,03,04,16,7.60
2016,04,03,04,17,7.60
2016,04,03,04,18,7.60
2016,04,03,04,19,7.60
2016,04,03,04,20,7.60
2016,04,03,04,21,7.50
2016,04,03,04,22,7.50
2016,04,03,04,23,7.40
2016,04,03,04,24,7.40
2016,04,03,04,25,7.30
2016,04,03,04,26,7.30
2016,04,03,04,27,7.30
2016,04,03,04,28,7.30
2016,04,03,04,29,7.30
2016,04,03,04,30,7.30
2016,04,03,04,31,7.40
2016,04,03,04,32,7.40
2016,04,03,04,33,7.40
2016,04,03,04,34,7.40
2016,04,03,04,35,7.40
2016,04,03,04,36,7.40
2016,04,03,04,37,7.40
2016,04,03,04,38,7.40
2016,04,03,04,39,7.40
2016,04,03,04,40,7.40
2016,04,03,04,41,7.40
2016,04,03,04,42,7.50
2016,04,03,04,43,7.50
2016,04,03,04,44,7.60
2016,04,03,04,45,7.60
2016,04,03,04,46,7.60
2016,04,03,04,47,7.60
2016,04,03,04,48,7.60
2016,04,03,04,49,7.50
2016,04,03,04,50,7.50
2016,04,03,04,51,7.50
2016,04,03,04,52,7.50
2016,04,03,04,53,7.60
2016,04,03,04,54,7.60
2016,04,03,04,55,7.60
2016,04,03,04,56,7.60
2016,04,03,04,57,7.60
2016,04,03,04,58,7.60
2016,04,03,04,59,7.60
2016,04,03,05,00,7.70
2016,04,03,05,01,7.70
2016,04,03,05,02,7.70
2016,04,03,05,03,7.70
2016,04,03,05,04,7.70
2016,04,03,05,05,7.70
2016,04,03,05,06,7.70
2016,04,03,05,07,7.60
2016,04,03,05,08,7.60
2016,04,03,05,09,7.60
2016,04,03,05,10,7.60
2016,04,03,05,11,7.50
2016,04,03,05,12,7.50
2016,04,03,05,13,7.50
2016,04,03,05,14,7.50
2016,04,03,05,15,7.40
2016,04,03,05,16,7.40
2016,04,03,05,17,7.40
2016,04,03,05,18,7.40
2016,04,03,05,19,7.40
2016,04,03,05,20,7.30
2016,04,03,05,21,7.30
2016,04,03,05,22,7.20
2016,04,03,05,23,7.20
2016,04,03,05,24,7.20
2016,04,03,05,25,7.20
2016,04,03,05,26,7.20
2016,04,03,05,27,7.20
2016,04,03,05,28,7.10
2016,04,03,05,29,7.10
2016,04,03,05,30,7.20
2016,04,03,05,31,7.20
2016,04,03,05,32,7.20
2016,04,03,05,33,7.30
2016,04,03,05,34,7.30
2016,04,03,05,35,7.30
2016,04,03,05,36,7.30
2016,04,03,05,37,7.30
2016,04,03,05,38,7.30
2016,04,03,05,39,7.30
2016,04,03,05,40,7.30
2016,04,03,05,41,7.30
2016,04,03,05,42,7.30
2016,04,03,05,43,7.30
2016,04,03,05,44,7.30
2016,04,03,05,45,7.30
2016,04,03,05,46,7.30
2016,04,03,05,47,7.30
2016,04,03,05,48,7.30
2016,04,03,05,49,7.30
2016,04,03,05,50,7.30
2016,04,03,05,51,7.30
2016,04,03,05,52,7.20
2016,04,03,05,53,7.20
2016,04,03,05,54,7.20
2016,04,03,05,55,7.20
2016,04,03,05,56,7.20
2016,04,03,05,57,7.20
2016,04,03,05,58,7.20
2016,04,03,05,59,7.20
2016,04,03,06,00,7.20
2016,04,03,06,01,7.20
2016,04,03,06,02,7.20
2016,04,03,06,03,7.20
2016,04,03,06,04,7.20
2016,04,03,06,05,7.20
2016,04,03,06,06,7.20
2016,04,03,06,07,7.20
2016,04,03,06,08,7.20
2016,04,03,06,09,7.20
2016,04,03,06,10,7.30
2016,04,03,06,11,7.30
2016,04,03,06,12,7.30
2016,04,03,06,13,7.30
2016,04,03,06,14,7.30
2016,04,03,06,15,7.30
2016,04,03,06,16,7.30
2016,04,03,06,17,7.20
2016,04,03,06,18,7.20
2016,04,03,06,19,7.20
2016,04,03,06,20,7.20
2016,04,03,06,21,7.20
2016,04,03,06,22,7.20
2016,04,03,06,23,7.20
2016,04,03,06,24,7.20
2016,04,03,06,25,7.20
2016,04,03,06,26,7.20
2016,04,03,06,27,7.20
2016,04,03,06,28,7.30
2016,04,03,06,29,7.30
2016,04,03,06,30,7.30
2016,04,03,06,31,7.40
2016,04,03,06,32,7.40
2016,04,03,06,33,7.50
2016,04,03,06,34,7.50
2016,04,03,06,35,7.50
2016,04,03,06,36,7.40
2016,04,03,06,37,7.40
2016,04,03,06,38,7.40
2016,04,03,06,39,7.40
2016,04,03,06,40,7.40
2016,04,03,06,41,7.40
2016,04,03,06,42,7.40
2016,04,03,06,43,7.40
2016,04,03,06,44,7.40
2016,04,03,06,45,7.40
2016,04,03,06,46,7.40
2016,04,03,06,47,7.40
2016,04,03,06,48,7.40
2016,04,03,06,49,7.30
2016,04,03,06,50,7.30
2016,04,03,06,51,7.30
2016,04,03,06,52,7.30
2016,04,03,06,53,7.30
2016,04,03,06,54,7.40
2016,04,03,06,55,7.40
2016,04,03,06,56,7.40
2016,04,03,06,57,7.40
2016,04,03,06,58,7.40
2016,04,03,06,59,7.40
2016,04,03,07,00,7.40
2016,04,03,07,01,7.40
2016,04,03,07,02,7.40
2016,04,03,07,03,7.30
2016,04,03,07,04,7.30
2016,04,03,07,05,7.30
2016,04,03,07,06,7.30
2016,04,03,07,07,7.30
2016,04,03,07,08,7.30
2016,04,03,07,09,7.40
2016,04,03,07,10,7.40
2016,04,03,07,11,7.30
2016,04,03,07,12,7.30
2016,04,03,07,13,7.30
2016,04,03,07,14,7.30
2016,04,03,07,15,7.30
2016,04,03,07,16,7.30
2016,04,03,07,17,7.30
2016,04,03,07,18,7.30
2016,04,03,07,19,7.30
2016,04,03,07,20,7.30
2016,04,03,07,21,7.30
2016,04,03,07,22,7.30
2016,04,03,07,23,7.30
2016,04,03,07,24,7.40
2016,04,03,07,25,7.40
2016,04,03,07,26,7.40
2016,04,03,07,27,7.40
2016,04,03,07,28,7.40
2016,04,03,07,29,7.40
2016,04,03,07,30,7.40
2016,04,03,07,31,7.40
2016,04,03,07,32,7.40
2016,04,03,07,33,7.40
2016,04,03,07,34,7.40
2016,04,03,07,35,7.40
2016,04,03,07,36,7.40
2016,04,03,07,37,7.40
2016,04,03,07,38,7.40
2016,04,03,07,39,7.40
2016,04,03,07,40,7.40
2016,04,03,07,41,7.50
2016,04,03,07,42,7.50
2016,04,03,07,43,7.60
2016,04,03,07,44,7.60
2016,04,03,07,45,7.70
2016,04,03,07,46,7.70
2016,04,03,07,47,7.70
2016,04,03,07,48,7.80
2016,04,03,07,49,7.80
2016,04,03,07,50,7.80
2016,04,03,07,51,7.90
2016,04,03,07,52,7.90
2016,04,03,07,53,8.00
2016,04,03,07,54,8.00
2016,04,03,07,55,8.00
2016,04,03,07,56,8.10
2016,04,03,07,57,8.10
2016,04,03,07,58,8.10
2016,04,03,07,59,8.10
2016,04,03,08,00,8.10
2016,04,03,08,01,8.10
2016,04,03,08,02,8.10
2016,04,03,08,03,8.10
2016,04,03,08,04,8.20
2016,04,03,08,05,8.20
2016,04,03,08,06,8.20
2016,04,03,08,07,8.20
2016,04,03,08,08,8.20
2016,04,03,08,09,8.20
2016,04,03,08,10,8.30
2016,04,03,08,11,8.30
2016,04,03,08,12,8.30
2016,04,03,08,13,8.30
2016,04,03,08,14,8.30
2016,04,03,08,15,8.40
2016,04,03,08,16,8.40
2016,04,03,08,17,8.50
2016,04,03,08,18,8.50
2016,04,03,08,19,8.60
2016,04,03,08,20,8.60
2016,04,03,08,21,8.60
2016,04,03,08,22,8.70
2016,04,03,08,23,8.70
2016,04,03,08,24,8.80
2016,04,03,08,25,8.90
2016,04,03,08,26,8.90
2016,04,03,08,27,9.00
2016,04,03,08,28,9.00
2016,04,03,08,29,9.10
2016,04,03,08,30,9.10
2016,04,03,08,31,9.20
2016,04,03,08,32,9.20
2016,04,03,08,33,9.20
2016,04,03,08,34,9.20
2016,04,03,08,35,9.20
2016,04,03,08,36,9.20
2016,04,03,08,37,9.30
2016,04,03,08,38,9.30
2016,04,03,08,39,9.30
2016,04,03,08,40,9.40
2016,04,03,08,41,9.40
2016,04,03,08,42,9.40
2016,04,03,08,43,9.40
2016,04,03,08,44,9.50
2016,04,03,08,45,9.50
2016,04,03,08,46,9.50
2016,04,03,08,47,9.50
2016,04,03,08,48,9.60
2016,04,03,08,49,9.60
2016,04,03,08,50,9.60
2016,04,03,08,51,9.60
2016,04,03,08,52,9.70
2016,04,03,08,53,9.70
2016,04,03,08,54,9.70
2016,04,03,08,55,9.70
2016,04,03,08,56,9.70
2016,04,03,08,57,9.70
2016,04,03,08,58,9.80
2016,04,03,08,59,9.80
2016,04,03,09,00,9.80
2016,04,03,09,01,9.90
2016,04,03,09,02,9.90
2016,04,03,09,03,10.00
2016,04,03,09,04,10.00
2016,04,03,09,05,10.10
2016,04,03,09,06,10.10
2016,04,03,09,07,10.10
2016,04,03,09,08,10.10
2016,04,03,09,09,10.00
2016,04,03,09,10,10.00
2016,04,03,09,11,9.90
2016,04,03,09,12,10.00
2016,04,03,09,13,10.00
2016,04,03,09,14,10.00
2016,04,03,09,15,10.00
2016,04,03,09,16,10.00
2016,04,03,09,17,10.10
2016,04,03,09,18,10.10
2016,04,03,09,19,10.10
2016,04,03,09,20,10.10
2016,04,03,09,21,10.20
2016,04,03,09,22,10.20
2016,04,03,09,23,10.30
2016,04,03,09,24,10.30
2016,04,03,09,25,10.30
2016,04,03,09,26,10.30
2016,04,03,09,27,10.30
2016,04,03,09,28,10.30
2016,04,03,09,29,10.40
2016,04,03,09,30,10.40
2016,04,03,09,31,10.50
2016,04,03,09,32,10.50
2016,04,03,09,33,10.60
2016,04,03,09,34,10.70
2016,04,03,09,35,10.80
2016,04,03,09,36,10.90
2016,04,03,09,37,10.90
2016,04,03,09,38,10.90
2016,04,03,09,39,11.00
2016,04,03,09,40,11.10
2016,04,03,09,41,11.10
2016,04,03,09,42,11.20
2016,04,03,09,43,11.20
2016,04,03,09,44,11.30
2016,04,03,09,45,11.40
2016,04,03,09,46,11.40
2016,04,03,09,47,11.50
2016,04,03,09,48,11.60
2016,04,03,09,49,11.70
2016,04,03,09,50,11.70
2016,04,03,09,51,11.80
2016,04,03,09,52,11.80
2016,04,03,09,53,11.80
2016,04,03,09,54,11.80
2016,04,03,09,55,11.90
2016,04,03,09,56,11.90
2016,04,03,09,57,11.90
2016,04,03,09,58,11.90
2016,04,03,09,59,12.00
2016,04,03,10,00,12.00
2016,04,03,10,01,12.10
2016,04,03,10,02,12.20
2016,04,03,10,03,12.20
2016,04,03,10,04,12.30
2016,04,03,10,05,12.40
2016,04,03,10,06,12.40
2016,04,03,10,07,12.40
2016,04,03,10,08,12.50
2016,04,03,10,09,12.50
2016,04,03,10,10,12.60
2016,04,03,10,11,12.60
2016,04,03,10,12,12.60
2016,04,03,10,13,12.60
2016,04,03,10,14,12.70
2016,04,03,10,15,12.70
2016,04,03,10,16,12.80
2016,04,03,10,17,12.80
2016,04,03,10,18,12.80
2016,04,03,10,19,12.90
2016,04,03,10,20,13.00
2016,04,03,10,21,12.90
2016,04,03,10,22,12.90
2016,04,03,10,23,13.00
2016,04,03,10,24,13.00
2016,04,03,10,25,13.00
2016,04,03,10,26,13.00
2016,04,03,10,27,13.10
2016,04,03,10,28,13.10
2016,04,03,10,29,13.20
2016,04,03,10,30,13.20
2016,04,03,10,31,13.30
2016,04,03,10,32,13.30
2016,04,03,10,33,13.30
2016,04,03,10,34,13.20
2016,04,03,10,35,13.20
2016,04,03,10,36,13.20
2016,04,03,10,37,13.20
2016,04,03,10,38,13.20
2016,04,03,10,39,13.30
2016,04,03,10,40,13.40
2016,04,03,10,41,13.40
2016,04,03,10,42,13.50
2016,04,03,10,43,13.60
2016,04,03,10,44,13.60
2016,04,03,10,45,13.70
2016,04,03,10,46,13.70
2016,04,03,10,47,13.70
2016,04,03,10,48,13.70
2016,04,03,10,49,13.70
2016,04,03,10,50,13.80
2016,04,03,10,51,13.80
2016,04,03,10,52,13.70
2016,04,03,10,53,13.60
2016,04,03,10,54,13.50
2016,04,03,10,55,13.50
2016,04,03,10,56,13.40
2016,04,03,10,57,13.30
2016,04,03,10,58,13.20
2016,04,03,10,59,13.10
2016,04,03,11,00,13.00
2016,04,03,11,01,13.00
2016,04,03,11,02,12.90
2016,04,03,11,03,12.80
2016,04,03,11,04,12.70
2016,04,03,11,05,12.60
2016,04,03,11,06,12.50
2016,04,03,11,07,12.50
2016,04,03,11,08,12.40
2016,04,03,11,09,12.40
2016,04,03,11,10,12.40
2016,04,03,11,11,12.50
2016,04,03,11,12,12.50
2016,04,03,11,13,12.50
2016,04,03,11,14,12.50
2016,04,03,11,15,12.40
2016,04,03,11,16,12.40
2016,04,03,11,17,12.40
2016,04,03,11,18,12.40
2016,04,03,11,19,12.50
2016,04,03,11,20,12.50
2016,04,03,11,21,12.50
2016,04,03,11,22,12.50
2016,04,03,11,23,12.50
2016,04,03,11,24,12.50
2016,04,03,11,25,12.50
2016,04,03,11,26,12.50
2016,04,03,11,27,12.60
2016,04,03,11,28,12.60
2016,04,03,11,29,12.70
2016,04,03,11,30,12.70
2016,04,03,11,31,12.70
2016,04,03,11,32,12.70
2016,04,03,11,33,12.70
2016,04,03,11,34,12.70
2016,04,03,11,35,12.70
2016,04,03,11,36,12.80
2016,04,03,11,37,12.90
2016,04,03,11,38,12.90
2016,04,03,11,39,12.90
2016,04,03,11,40,13.00
2016,04,03,11,41,13.00
2016,04,03,11,42,13.10
2016,04,03,11,43,13.00
2016,04,03,11,44,13.00
2016,04,03,11,45,13.10
2016,04,03,11,46,13.00
2016,04,03,11,47,13.10
2016,04,03,11,48,13.10
2016,04,03,11,49,13.10
2016,04,03,11,50,13.10
2016,04,03,11,51,13.20
2016,04,03,11,52,13.20
2016,04,03,11,53,13.30
2016,04,03,11,54,13.30
2016,04,03,11,55,13.40
2016,04,03,11,56,13.50
2016,04,03,11,57,13.50
2016,04,03,11,58,13.60
2016,04,03,11,59,13.60
2016,04,03,12,00,13.70
2016,04,03,12,01,13.70
2016,04,03,12,02,13.60
2016,04,03,12,03,13.60
2016,04,03,12,04,13.50
2016,04,03,12,05,13.60
2016,04,03,12,06,13.60
2016,04,03,12,07,13.60
2016,04,03,12,08,13.60
2016,04,03,12,09,13.60
2016,04,03,12,10,13.70
2016,04,03,12,11,13.80
2016,04,03,12,12,13.80
2016,04,03,12,13,13.80
2016,04,03,12,14,13.90
2016,04,03,12,15,13.90
2016,04,03,12,16,13.90
2016,04,03,12,17,13.90
2016,04,03,12,18,13.90
2016,04,03,12,19,13.90
2016,04,03,12,20,14.00
2016,04,03,12,21,14.00
2016,04,03,12,22,14.10
2016,04,03,12,23,14.20
2016,04,03,12,24,14.20
2016,04,03,12,25,14.30
2016,04,03,12,26,14.30
2016,04,03,12,27,14.40
2016,04,03,12,28,14.40
2016,04,03,12,29,14.60
2016,04,03,12,30,14.70
2016,04,03,12,31,14.80
2016,04,03,12,32,14.90
2016,04,03,12,33,15.00
2016,04,03,12,34,15.00
2016,04,03,12,35,15.00
2016,04,03,12,36,15.00
2016,04,03,12,37,15.00
2016,04,03,12,38,15.00
2016,04,03,12,39,15.00
2016,04,03,12,40,15.00
2016,04,03,12,41,15.00
2016,04,03,12,42,15.00
2016,04,03,12,43,15.00
2016,04,03,12,44,15.00
2016,04,03,12,45,15.00
2016,04,03,12,46,15.00
2016,04,03,12,47,14.90
2016,04,03,12,48,14.90
2016,04,03,12,49,14.80
2016,04,03,12,50,14.80
2016,04,03,12,51,14.90
2016,04,03,12,52,14.90
2016,04,03,12,53,15.00
2016,04,03,12,54,15.00
2016,04,03,12,55,15.00
2016,04,03,12,56,15.00
2016,04,03,12,57,15.10
2016,04,03,12,58,15.20
2016,04,03,12,59,15.20
2016,04,03,13,00,15.20
2016,04,03,13,01,15.20
2016,04,03,13,02,15.20
2016,04,03,13,03,15.20
2016,04,03,13,04,15.20
2016,04,03,13,05,15.00
2016,04,03,13,06,15.00
2016,04,03,13,07,15.00
2016,04,03,13,08,15.00
2016,04,03,13,09,15.00
2016,04,03,13,10,15.00
2016,04,03,13,11,15.00
2016,04,03,13,12,15.00
2016,04,03,13,13,15.00
2016,04,03,13,14,15.10
2016,04,03,13,15,15.10
2016,04,03,13,16,15.10
2016,04,03,13,17,15.10
2016,04,03,13,18,15.10
2016,04,03,13,19,15.10
2016,04,03,13,20,15.10
2016,04,03,13,21,15.10
2016,04,03,13,22,15.00
2016,04,03,13,23,15.00
2016,04,03,13,24,15.00
2016,04,03,13,25,15.10
2016,04,03,13,26,15.20
2016,04,03,13,27,15.30
2016,04,03,13,28,15.30
2016,04,03,13,29,15.30
2016,04,03,13,30,15.30
2016,04,03,13,31,15.40
2016,04,03,13,32,15.40
2016,04,03,13,33,15.40
2016,04,03,13,34,15.40
2016,04,03,13,35,15.30
2016,04,03,13,36,15.30
2016,04,03,13,37,15.30
2016,04,03,13,38,15.40
2016,04,03,13,39,15.40
2016,04,03,13,40,15.50
2016,04,03,13,41,15.50
2016,04,03,13,42,15.50
2016,04,03,13,43,15.40
2016,04,03,13,44,15.30
2016,04,03,13,45,15.30
2016,04,03,13,46,15.20
2016,04,03,13,47,15.20
2016,04,03,13,48,15.10
2016,04,03,13,49,15.00
2016,04,03,13,50,15.00
2016,04,03,13,51,15.00
2016,04,03,13,52,15.00
2016,04,03,13,53,15.00
2016,04,03,13,54,15.00
2016,04,03,13,55,15.00
2016,04,03,13,56,15.10
2016,04,03,13,57,15.30
2016,04,03,13,58,15.40
2016,04,03,13,59,15.50
2016,04,03,14,00,15.60
2016,04,03,14,01,15.70
2016,04,03,14,02,15.80
2016,04,03,14,03,15.80
2016,04,03,14,04,15.80
2016,04,03,14,05,15.80
2016,04,03,14,06,15.90
2016,04,03,14,07,15.90
2016,04,03,14,08,16.00
2016,04,03,14,09,16.10
2016,04,03,14,10,16.10
2016,04,03,14,11,16.10
2016,04,03,14,12,16.10
2016,04,03,14,13,16.10
2016,04,03,14,14,16.10
2016,04,03,14,15,16.00
2016,04,03,14,16,16.10
2016,04,03,14,17,16.10
2016,04,03,14,18,16.10
2016,04,03,14,19,16.10
2016,04,03,14,20,16.10
2016,04,03,14,21,16.10
2016,04,03,14,22,16.10
2016,04,03,14,23,16.10
2016,04,03,14,24,16.00
2016,04,03,14,25,15.90
2016,04,03,14,26,15.80
2016,04,03,14,27,15.70
2016,04,03,14,28,15.60
2016,04,03,14,29,15.60
2016,04,03,14,30,15.50
2016,04,03,14,31,15.50
2016,04,03,14,32,15.50
2016,04,03,14,33,15.60
2016,04,03,14,34,15.60
2016,04,03,14,35,15.70
2016,04,03,14,36,15.70
2016,04,03,14,37,15.70
2016,04,03,14,38,15.70
2016,04,03,14,39,15.70
2016,04,03,14,40,15.60
2016,04,03,14,41,15.60
2016,04,03,14,42,15.60
2016,04,03,14,43,15.60
2016,04,03,14,44,15.60
2016,04,03,14,45,15.60
2016,04,03,14,46,15.60
2016,04,03,14,47,15.60
2016,04,03,14,48,15.70
2016,04,03,14,49,15.70
2016,04,03,14,50,15.70
2016,04,03,14,51,15.70
2016,04,03,14,52,15.70
2016,04,03,14,53,15.80
2016,04,03,14,54,15.90
2016,04,03,14,55,16.00
2016,04,03,14,56,16.10
2016,04,03,14,57,16.10
2016,04,03,14,58,16.20
2016,04,03,14,59,16.30
2016,04,03,15,00,16.40
2016,04,03,15,01,16.40
2016,04,03,15,02,16.40
2016,04,03,15,03,16.40
2016,04,03,15,04,16.40
2016,04,03,15,05,16.40
2016,04,03,15,06,16.40
2016,04,03,15,07,16.40
2016,04,03,15,08,16.30
2016,04,03,15,09,16.30
2016,04,03,15,10,16.30
2016,04,03,15,11,16.30
2016,04,03,15,12,16.20
2016,04,03,15,13,16.20
2016,04,03,15,14,16.20
2016,04,03,15,15,16.20
2016,04,03,15,16,16.20
2016,04,03,15,17,16.10
2016,04,03,15,18,16.10
2016,04,03,15,19,16.10
2016,04,03,15,20,16.10
2016,04,03,15,21,16.10
2016,04,03,15,22,16.20
2016,04,03,15,23,16.20
2016,04,03,15,24,16.30
2016,04,03,15,25,16.30
2016,04,03,15,26,16.30
2016,04,03,15,27,16.30
2016,04,03,15,28,16.30
2016,04,03,15,29,16.30
2016,04,03,15,30,16.30
2016,04,03,15,31,16.30
2016,04,03,15,32,16.40
2016,04,03,15,33,16.40
2016,04,03,15,34,16.40
2016,04,03,15,35,16.40
2016,04,03,15,36,16.50
2016,04,03,15,37,16.50
2016,04,03,15,38,16.60
2016,04,03,15,39,16.60
2016,04,03,15,40,16.70
2016,04,03,15,41,16.70
2016,04,03,15,42,16.70
2016,04,03,15,43,16.70
2016,04,03,15,44,16.70
2016,04,03,15,45,16.60
2016,04,03,15,46,16.50
2016,04,03,15,47,16.50
2016,04,03,15,48,16.50
2016,04,03,15,49,16.50
2016,04,03,15,50,16.40
2016,04,03,15,51,16.40
2016,04,03,15,52,16.30
2016,04,03,15,53,16.30
2016,04,03,15,54,16.30
2016,04,03,15,55,16.30
2016,04,03,15,56,16.30
2016,04,03,15,57,16.30
2016,04,03,15,58,16.20
2016,04,03,15,59,16.20
2016,04,03,16,00,16.20
2016,04,03,16,01,16.20
2016,04,03,16,02,16.20
2016,04,03,16,03,16.10
2016,04,03,16,04,16.00
2016,04,03,16,05,16.00
2016,04,03,16,06,15.90
2016,04,03,16,07,15.80
2016,04,03,16,08,15.80
2016,04,03,16,09,15.80
2016,04,03,16,10,15.80
2016,04,03,16,11,15.80
2016,04,03,16,12,15.80
2016,04,03,16,13,15.80
2016,04,03,16,14,15.90
2016,04,03,16,15,15.90
2016,04,03,16,16,15.90
2016,04,03,16,17,15.90
2016,04,03,16,18,16.00
2016,04,03,16,19,16.00
2016,04,03,16,20,16.00
2016,04,03,16,21,16.10
2016,04,03,16,22,16.10
2016,04,03,16,23,16.20
2016,04,03,16,24,16.20
2016,04,03,16,25,16.30
2016,04,03,16,26,16.30
2016,04,03,16,27,16.40
2016,04,03,16,28,16.40
2016,04,03,16,29,16.50
2016,04,03,16,30,16.60
2016,04,03,16,31,16.60
2016,04,03,16,32,16.60
2016,04,03,16,33,16.70
2016,04,03,16,34,16.70
2016,04,03,16,35,16.70
2016,04,03,16,36,16.70
2016,04,03,16,37,16.70
2016,04,03,16,38,16.70
2016,04,03,16,39,16.60
2016,04,03,16,40,16.60
2016,04,03,16,41,16.50
2016,04,03,16,42,16.50
2016,04,03,16,43,16.50
2016,04,03,16,44,16.40
2016,04,03,16,45,16.40
2016,04,03,16,46,16.40
2016,04,03,16,47,16.40
2016,04,03,16,48,16.40
2016,04,03,16,49,16.30
2016,04,03,16,50,16.30
2016,04,03,16,51,16.30
2016,04,03,16,52,16.30
2016,04,03,16,53,16.30
2016,04,03,16,54,16.30
2016,04,03,16,55,16.30
2016,04,03,16,56,16.20
2016,04,03,16,57,16.20
2016,04,03,16,58,16.20
2016,04,03,16,59,16.20
2016,04,03,17,00,16.20
2016,04,03,17,01,16.20
2016,04,03,17,02,16.20
2016,04,03,17,03,16.20
2016,04,03,17,04,16.20
2016,04,03,17,05,16.20
2016,04,03,17,06,16.20
2016,04,03,17,07,16.20
2016,04,03,17,08,16.20
2016,04,03,17,09,16.20
2016,04,03,17,10,16.20
2016,04,03,17,11,16.20
2016,04,03,17,12,16.10
2016,04,03,17,13,16.10
2016,04,03,17,14,16.10
2016,04,03,17,15,16.10
2016,04,03,17,16,16.10
2016,04,03,17,17,16.10
2016,04,03,17,18,16.10
2016,04,03,17,19,16.10
2016,04,03,17,20,16.10
2016,04,03,17,21,16.10
2016,04,03,17,22,16.10
2016,04,03,17,23,16.10
2016,04,03,17,24,16.10
2016,04,03,17,25,16.10
2016,04,03,17,26,16.10
2016,04,03,17,27,16.20
2016,04,03,17,28,16.20
2016,04,03,17,29,16.10
2016,04,03,17,30,16.10
2016,04,03,17,31,16.10
2016,04,03,17,32,16.10
2016,04,03,17,33,16.10
2016,04,03,17,34,16.10
2016,04,03,17,35,16.00
2016,04,03,17,36,16.00
2016,04,03,17,37,16.00
2016,04,03,17,38,16.00
2016,04,03,17,39,15.90
2016,04,03,17,40,15.90
2016,04,03,17,41,15.90
2016,04,03,17,42,15.80
2016,04,03,17,43,15.80